Regional Weather Roundup
Issued by NWS Little Rock, AR

Home | Current Version | Previous Version | Graphics & Text | Print | Product List | Glossary On
Versions: 1 2 3 4 5 6 7 8 9 10 11 12 13 14 15 16 17 18 19 20 21 22 23 24 25 26 27
000
ASUS44 KLZK 262205
RWRLZK

WEATHER ROUNDUP FOR ARKANSAS
NATIONAL WEATHER SERVICE LITTLE ROCK AR
500 PM CDT FRI AUG 26 2016

NOTE: "FAIR" INDICATES FEW OR NO CLOUDS BELOW 12,000 FEET WITH NO
SIGNIFICANT WEATHER AND/OR OBSTRUCTIONS TO VISIBILITY.

ARZ001-003-010-029-262300-
NORTHWEST ARKANSAS

CITY           SKY/WX    TMP DP  RH WIND       PRES   REMARKS
FAYETTEVILLE   CLOUDY    76  69  79 S6        30.05F
FORT SMITH     CLOUDY    82  71  69 E6        30.01F HX  86
HARRISON       MOSUNNY   83  70  64 CALM      30.06F HX  87
BENTONVILLE    PTSUNNY   75  68  78 CALM      30.06S
ROGERS         PTSUNNY   75  71  87 CALM      30.07S
SILOAM SPGS    PTSUNNY   75  64  69 SE6       30.06F
HIGHFILL       CLOUDY    75  71  87 S5        30.06S
SPRINGDALE     SUNNY     75  72  88 S5        30.07F
$$

ARZ004-005-016-262300-
NORTH CENTRAL ARKANSAS

CITY           SKY/WX    TMP DP  RH WIND       PRES   REMARKS
BATESVILLE     MOSUNNY   90  73  58 E5        30.02S HX  98
FLIPPIN        MOSUNNY   81  68  65 W12       30.03R
MTN HOME       MOSUNNY   86  72  62 CALM      30.04R HX  92
$$

ARZ040-041-262300-
WEST CENTRAL ARKANSAS

CITY           SKY/WX    TMP DP  RH WIND       PRES   REMARKS
MENA           SUNNY     86  73  66 NW3       30.04R HX  93
MOUNT IDA      MOSUNNY   87  71  58 VRB3      30.00F HX  93
$$

ARZ009-017-025-026-028-262300-
NORTHEAST ARKANSAS

CITY           SKY/WX    TMP DP  RH WIND       PRES   REMARKS
CORNING          N/A     86  77  74 E6        30.03S HX  97
JONESBORO      CLOUDY    80  76  87 CALM      30.02S HX  86
NEWPORT        CLOUDY    89  74  60 E8        30.02F HX  98
WALNUT RIDGE   CLOUDY    88  75  66 E8        30.00F HX  97
BLYTHEVILLE    HVY RAIN  75  73  93 E18G28    30.11R
$$

ARZ022-023-033-042-044-262300-
CENTRAL ARKANSAS

CITY           SKY/WX    TMP DP  RH WIND       PRES   REMARKS
LITTLE ROCK    MOSUNNY   93  71  48 CALM      30.00R HX 100
N LITTLE ROCK    N/A     92  76  59 E6        29.98R HX 103
JACKSONVILLE   SUNNY     91  76  62 E5        30.00R HX 102
SEARCY         MOSUNNY   90  79  70 E10       30.02S HX 106
HOT SPRINGS    SUNNY     89  70  53 CALM      30.01S HX  94
RUSSELLVILLE   SUNNY     87  70  56 W6        30.00S HX  92
$$

ARZ036-262300-
EAST ARKANSAS

CITY           SKY/WX    TMP DP  RH WIND       PRES   REMARKS
WEST MEMPHIS   CLOUDY    78  74  87 SE5       30.04R
$$

ARZ050-053-066-070-073-262300-
SOUTHWEST ARKANSAS

CITY           SKY/WX    TMP DP  RH WIND       PRES   REMARKS
ARKADELPHIA    FAIR      89  74  60 W3        30.00R HX  98
TEXARKANA      SUNNY     87  72  60 CALM      30.00S HX  93
EL DORADO      SUNNY     89  72  56 CALM      29.99S HX  96
DE QUEEN       PTSUNNY   87  75  67 CALM      29.98S HX  96
$$

ARZ056-057-069-262300-
SOUTHEAST ARKANSAS

CITY           SKY/WX    TMP DP  RH WIND       PRES   REMARKS
PINE BLUFF     PTSUNNY   91  72  53 MISG      29.99S HX  98
STUTTGART      PTSUNNY   91  72  52 NE5       30.00S HX  98
MONTICELLO     MOSUNNY   96  73  47 NE5       29.99R HX 105

$$






USA.gov is the U.S. government's official web portal to all federal, state and local government web resources and services.